| time (UTC) | temp C | wind direction | speed KPH | gust KPH | rain 1hr cm | rain 24hr cm | rain mn cm | humidity % | barometer mb |
| 20260507003039 | 16 | 0 | 0.0 | 0.0 | 0.00 | 0.03 | 0.03 | 85 | 1012.8 |
| 20260507001546 | 16 | 0 | 0.0 | 0.0 | 0.00 | 0.03 | 0.03 | 85 | 1012.5 |
| 20260507000037 | 16 | 0 | 0.0 | 1.6 | 0.00 | 0.03 | 0.03 | 85 | 1012.7 |
| 20260506234539 | 16 | 0 | 0.0 | 1.6 | 0.00 | 0.03 | 0.03 | 85 | 1012.5 |
| 20260506233043 | 16 | 0 | 0.0 | 1.6 | 0.00 | 0.03 | 0.03 | 83 | 1012.4 |
| 20260506231538 | 16 | 0 | 0.0 | 1.6 | 0.00 | 0.03 | 0.03 | 84 | 1012.4 |
| 20260506230044 | 16 | 0 | 0.0 | 1.6 | 0.00 | 0.03 | 0.03 | 83 | 1012.5 |
| 20260506224537 | 16 | 0 | 0.0 | 1.6 | 0.00 | 0.03 | 0.03 | 84 | 1012.4 |
| 20260506223039 | 16 | 0 | 0.0 | 1.6 | 0.00 | 0.03 | 0.03 | 83 | 1012.5 |
| 20260506221546 | 16 | 0 | 0.0 | 3.2 | 0.00 | 0.03 | 0.03 | 84 | 1012.1 |
| 20260506220047 | 15 | 0 | 0.0 | 1.6 | 0.00 | 0.03 | 0.03 | 84 | 1012.3 |
| 20260506214538 | 16 | 0 | 0.0 | 1.6 | 0.00 | 0.03 | 0.03 | 83 | 1012.2 |
| 20260506213037 | 16 | 0 | 0.0 | 1.6 | 0.00 | 0.03 | 0.03 | 81 | 1012.1 |
| 20260506211551 | 16 | 0 | 0.0 | 8.0 | 0.00 | 0.03 | 0.03 | 82 | 1012.3 |
| 20260506210045 | 16 | 0 | 0.0 | 12.9 | 0.00 | 0.03 | 0.03 | 82 | 1012.5 |
| 20260506204540 | 17 | 0 | 0.0 | 3.2 | 0.00 | 0.03 | 0.03 | 81 | 1012.6 |
| 20260506203039 | 17 | 0 | 0.0 | 12.9 | 0.00 | 0.03 | 0.03 | 81 | 1012.8 |
| 20260506201537 | 18 | 0 | 0.0 | 8.0 | 0.00 | 0.03 | 0.03 | 78 | 1012.5 |
| 20260506200037 | 20 | 0 | 0.0 | 1.6 | 0.00 | 0.03 | 0.03 | 76 | 1012.4 |
| 20260506194538 | 19 | 0 | 0.0 | 3.2 | 0.00 | 0.03 | 0.03 | 77 | 1012.3 |
| 20260506193040 | 19 | 0 | 0.0 | 11.3 | 0.00 | 0.03 | 0.03 | 79 | 1012.2 |
| 20260506191538 | 20 | 0 | 0.0 | 11.3 | 0.00 | 0.03 | 0.03 | 80 | 1012.3 |
| 20260506190037 | 20 | 0 | 0.0 | 11.3 | 0.00 | 0.03 | 0.03 | 79 | 1012.5 |
| 20260506184537 | 22 | 298 | 0.0 | 1.6 | 0.00 | 0.03 | 0.03 | 74 | 1012.2 |
| 20260506183043 | 24 | 0 | 0.0 | 1.6 | 0.00 | 0.03 | 0.03 | 74 | 1011.9 |
| 20260506181538 | 24 | 0 | 0.0 | 6.4 | 0.00 | 0.03 | 0.03 | 74 | 1011.9 |
| 20260506180037 | 23 | 0 | 0.0 | 8.0 | 0.00 | 0.03 | 0.03 | 76 | 1012.1 |
| 20260506174539 | 22 | 0 | 0.0 | 11.3 | 0.00 | 0.03 | 0.03 | 79 | 1011.6 |
| 20260506173046 | 22 | 0 | 0.0 | 12.9 | 0.03 | 0.03 | 0.03 | 79 | 1011.5 |
| 20260506171540 | 20 | 0 | 1.6 | 12.9 | 0.03 | 0.03 | 0.03 | 83 | 1011.7 |
| 20260506170043 | 18 | 60 | 4.8 | 16.1 | 0.03 | 0.03 | 0.03 | 85 | 1011.5 |
| 20260506164537 | 18 | 104 | 0.0 | 20.9 | 0.03 | 0.03 | 0.03 | 89 | 1011.6 |
| 20260506163044 | 17 | 61 | 0.0 | 8.0 | 0.00 | 0.00 | 0.00 | 93 | 1012.3 |
| 20260506161541 | 16 | 0 | 0.0 | 17.7 | 0.00 | 0.00 | 0.00 | 94 | 1012.4 |
| 20260506160041 | 16 | 0 | 0.0 | 1.6 | 0.00 | 0.00 | 0.00 | 91 | 1013.3 |
| 20260506154543 | 17 | 0 | 0.0 | 4.8 | 0.00 | 0.00 | 0.00 | 91 | 1013.1 |
| 20260506153043 | 17 | 0 | 0.0 | 6.4 | 0.00 | 0.00 | 0.00 | 91 | 1012.9 |
| 20260506151538 | 18 | 0 | 0.0 | 1.6 | 0.00 | 0.00 | 0.00 | 90 | 1012.4 |
| 20260506150050 | 19 | 0 | 1.6 | 12.9 | 0.00 | 0.00 | 0.00 | 87 | 1011.9 |
| 20260506144558 | 21 | 0 | 0.0 | 12.9 | 0.00 | 0.00 | 0.00 | 84 | 1011.3 |
| 20260506143049 | 25 | 0 | 0.0 | 1.6 | 0.00 | 0.00 | 0.00 | 87 | 1010.6 |
| 20260506141537 | 25 | 0 | 0.0 | 4.8 | 0.00 | 0.00 | 0.00 | 88 | 1010.1 |
| 20260506140054 | 24 | 0 | 0.0 | 3.2 | 0.00 | 0.00 | 0.00 | 90 | 1010.1 |
| 20260506134544 | 23 | 0 | 0.0 | 11.3 | 0.00 | 0.00 | 0.00 | 91 | 1010.0 |
| 20260506133043 | 23 | 0 | 0.0 | 8.0 | 0.00 | 0.00 | 0.00 | 92 | 1009.9 |
| 20260506131544 | 23 | 197 | 1.6 | 9.7 | 0.00 | 0.00 | 0.00 | 93 | 1009.8 |
| 20260506130054 | 23 | 0 | 1.6 | 9.7 | 0.00 | 0.00 | 0.00 | 94 | 1009.4 |
| 20260506124538 | 22 | 0 | 0.0 | 3.2 | 0.00 | 0.00 | 0.00 | 94 | 1009.4 |
| 20260506123040 | 22 | 0 | 0.0 | 4.8 | 0.00 | 0.00 | 0.00 | 95 | 1009.2 |
| 20260506121550 | 22 | 0 | 0.0 | 3.2 | 0.00 | 0.00 | 0.00 | 95 | 1009.1 |
| 20260506120039 | 22 | 0 | 0.0 | 0.0 | 0.00 | 0.00 | 0.00 | 95 | 1009.1 |
| 20260506114537 | 22 | 0 | 0.0 | 0.0 | 0.00 | 0.00 | 0.00 | 95 | 1008.9 |
| 20260506113040 | 22 | 0 | 0.0 | 0.0 | 0.00 | 0.00 | 0.00 | 94 | 1009.0 |
| 20260506111537 | 22 | 0 | 0.0 | 0.0 | 0.00 | 0.00 | 0.00 | 94 | 1009.3 |
| 20260506110043 | 22 | 0 | 0.0 | 0.0 | 0.00 | 0.00 | 0.00 | 94 | 1009.2 |
| 20260506104539 | 22 | 0 | 0.0 | 0.0 | 0.00 | 0.00 | 0.00 | 93 | 1009.2 |
| 20260506103037 | 22 | 0 | 0.0 | 1.6 | 0.00 | 0.00 | 0.00 | 93 | 1008.9 |
| 20260506101537 | 23 | 210 | 0.0 | 1.6 | 0.00 | 0.00 | 0.00 | 92 | 1008.9 |
| 20260506100038 | 23 | 0 | 0.0 | 1.6 | 0.00 | 0.00 | 0.00 | 92 | 1008.6 |
| 20260506094536 | 23 | 121 | 0.0 | 1.6 | 0.00 | 0.00 | 0.00 | 92 | 1008.5 |
| 20260506093042 | 23 | 0 | 0.0 | 4.8 | 0.00 | 0.00 | 0.00 | 92 | 1008.2 |
| 20260506091537 | 23 | 0 | 0.0 | 1.6 | 0.00 | 0.00 | 0.00 | 92 | 1008.1 |
| 20260506090041 | 23 | 0 | 0.0 | 3.2 | 0.00 | 0.00 | 0.00 | 92 | 1007.8 |
| 20260506084540 | 23 | 0 | 0.0 | 9.7 | 0.00 | 0.00 | 0.00 | 92 | 1007.8 |
| 20260506083037 | 23 | 208 | 0.0 | 6.4 | 0.00 | 0.00 | 0.00 | 92 | 1007.8 |
| 20260506081600 | 23 | 0 | 0.0 | 6.4 | 0.00 | 0.00 | 0.00 | 92 | 1007.7 |
| 20260506073039 | 23 | 277 | 1.6 | 9.7 | 0.00 | 0.00 | 0.00 | 91 | 1008.2 |
| 20260506071542 | 23 | 207 | 1.6 | 17.7 | 0.00 | 0.00 | 0.00 | 91 | 1008.3 |
| 20260506061544 | 23 | 119 | 0.0 | 12.9 | 0.00 | 0.00 | 0.00 | 91 | 1008.1 |
| 20260506044546 | 23 | 130 | 1.6 | 8.0 | 0.00 | 0.00 | 0.00 | 92 | 1008.3 |
| 20260506043043 | 23 | 0 | 0.0 | 11.3 | 0.00 | 0.00 | 0.00 | 91 | 1008.1 |
| 20260506041541 | 23 | 294 | 3.2 | 12.9 | 0.00 | 0.00 | 0.00 | 91 | 1008.2 |
| 20260506040039 | 23 | 0 | 0.0 | 3.2 | 0.00 | 0.00 | 0.00 | 91 | 1008.0 |
| 20260506034547 | 23 | 0 | 0.0 | 11.3 | 0.00 | 0.00 | 0.00 | 90 | 1007.7 |
| 20260506033037 | 23 | 126 | 0.0 | 8.0 | 0.00 | 0.00 | 0.00 | 89 | 1007.6 |
| 20260506031544 | 23 | 212 | 0.0 | 4.8 | 0.00 | 0.00 | 0.00 | 88 | 1007.5 |
| 20260506030040 | 24 | 0 | 0.0 | 3.2 | 0.00 | 0.00 | 0.00 | 87 | 1007.4 |
| 20260506024543 | 24 | 0 | 0.0 | 9.7 | 0.00 | 0.00 | 0.00 | 86 | 1007.2 |
| 20260506023036 | 24 | 0 | 0.0 | 1.6 | 0.00 | 0.00 | 0.00 | 85 | 1006.8 |
| 20260506021540 | 25 | 0 | 0.0 | 6.4 | 0.00 | 0.00 | 0.00 | 85 | 1006.6 |
| 20260506020038 | 25 | 0 | 0.0 | 3.2 | 0.00 | 0.00 | 0.00 | 84 | 1006.4 |
| 20260506014537 | 25 | 196 | 0.0 | 4.8 | 0.00 | 0.00 | 0.00 | 83 | 1006.0 |
| 20260506013040 | 25 | 188 | 0.0 | 3.2 | 0.00 | 0.00 | 0.00 | 82 | 1006.0 |
| 20260506011544 | 25 | 0 | 0.0 | 1.6 | 0.00 | 0.00 | 0.00 | 81 | 1006.0 |
| 20260506010053 | 26 | 0 | 0.0 | 1.6 | 0.00 | 0.00 | 0.00 | 79 | 1006.0 |
| 20260506004538 | 26 | 0 | 0.0 | 1.6 | 0.00 | 0.00 | 0.00 | 78 | 1006.0 |